This demonstration page uses our WeatherBlox Daily Observations layout. Learn more.

Hourly Observations for February 4, 2015

Temp ( °F °C ) Dew Point ( °F °C ) Humidity (%) Winds ( mph kmh ) Pressure ( in mb ) Visibility ( mi km ) Precip ( " mm )
12:15 am 00:15 Cloudy 32 0.1 29 -1.4 90 90 NE 10 17 30.12 1020 10 16.0934 0 0
12:35 am 00:35 Cloudy 32 0 29 -1.6 89 89 NE 14 22 30.12 1020 10 16.0934 0 0
12:55 am 00:55 Cloudy 31 -0.5 28 -2.1 89 89 NE 15 24 30.12 1020 10 16.0934 0 0
1:15 am 01:15 Cloudy 31 -0.8 27 -2.6 88 88 NE 16 26 30.12 1020 10 16.0934 0 0
1:35 am 01:35 Mostly Cloudy 30 -1.2 26 -3.2 86 86 NNE 14 22 30.12 1020 10 16.0934 0 0
1:55 am 01:55 Partly Cloudy 29 -1.6 26 -3.4 88 88 NNE 13 20 30.12 1020 10 16.0934 0 0
2:15 am 02:15 Mostly Cloudy 29 -1.8 26 -3.5 88 88 NE 14 22 30.12 1020 10 16.0934 0 0
2:35 am 02:35 Cloudy 29 -1.8 25 -3.8 86 86 NNE 20 31 30.15 1021 10 16.0934 0 0
2:55 am 02:55 Cloudy 28 -2.1 24 -4.2 86 86 NNE 21 33 30.15 1021 10 16.0934 0 0
3:15 am 03:15 Cloudy 28 -2.3 24 -4.3 86 86 NNE 21 33 30.15 1021 10 16.0934 0 0
3:35 am 03:35 Cloudy 27 -3 23 -5.1 86 86 NNE 22 35 30.15 1021 10 16.0934 0 0
3:55 am 03:55 Cloudy 26 -3.3 22 -5.3 86 86 NNE 23 37 30.21 1023 10 16.0934 0 0
4:15 am 04:15 Cloudy 26 -3.5 22 -5.5 86 86 NNE 28 44 30.21 1023 10 16.0934 0 0
4:35 am 04:35 Cloudy 25 -4 21 -6.1 86 86 NNE 25 41 30.24 1024 10 16.0934 0 0
4:55 am 04:55 Cloudy 24 -4.5 20 -6.6 85 85 NNE 25 41 30.24 1024 10 16.0934 0 0
5:15 am 05:15 Cloudy 23 -5.1 19 -7.3 85 85 NNE 26 43 30.24 1024 7 11.26538 0 0
5:35 am 05:35 Windy with Snow Likely 22 -5.5 19 -7.4 87 87 N 28 44 30.27 1025 7 11.26538 0 0
5:55 am 05:55 Cloudy 21 -6.2 17 -8.4 85 85 N 25 41 30.3 1026 7 11.26538 0 0
6:15 am 06:15 Cloudy 20 -6.6 16 -8.8 85 85 N 26 43 30.3 1026 7 11.26538 0 0
6:35 am 06:35 Windy with Snow Likely 19 -7 15 -9.2 85 85 NNE 26 43 30.3 1026 7 11.26538 0 0
6:55 am 06:55 Windy with Snow Likely 19 -7.5 15 -9.5 86 86 N 23 37 30.33 1027 4 6.43736 0 0
7:15 am 07:15 Windy with Snow Likely 18 -7.6 15 -9.5 86 86 N 23 37 30.39 1029 3 4.82802 0 0
7:35 am 07:35 Windy with Snow Likely 18 -8 14 -9.9 86 86 N 22 35 30.42 1030 2.5 4.02335 0 0
7:55 am 07:55 Windy with Snow Likely 17 -8.3 14 -10.2 86 86 N 25 41 30.42 1030 2.5 4.02335 0 0
8:15 am 08:15 Windy with Snow Likely 17 -8.5 13 -10.5 86 86 N 29 46 30.45 1031 5 8.0467 0 0
8:35 am 08:35 Windy with Snow Likely 16 -8.7 12 -11 84 84 N 24 39 30.45 1031 5 8.0467 0 0
8:55 am 08:55 Cloudy 16 -8.7 12 -11.1 83 83 N 26 43 30.45 1031 7 11.26538 0 0
9:15 am 09:15 Cloudy 16 -8.9 12 -11 85 85 N 25 41 30.48 1032 7 11.26538 0 0
9:35 am 09:35 Windy with Snow Likely 16 -9 11 -11.5 82 82 N 25 41 30.5 1033 1.25 2.011675 0 0
9:55 am 09:55 Windy with Snow Likely 15 -9.2 11 -11.5 84 84 N 26 43 30.5 1033 1.25 2.011675 0 0
10:15 am 10:15 Windy with Snow Likely 16 -8.7 12 -11.2 82 82 N 28 44 30.53 1034 3 4.82802 0 0
10:35 am 10:35 Windy with Snow Likely 16 -8.8 11 -11.6 80 80 N 21 33 30.53 1034 2.5 4.02335 0 0
10:55 am 10:55 Mostly Cloudy 17 -8.3 11 -11.8 76 76 N 21 33 30.56 1035 10 16.0934 0 0
11:15 am 11:15 Partly Cloudy 17 -8.3 10 -12.1 74 74 N 22 35 30.56 1035 10 16.0934 0 0
11:35 am 11:35 Mostly Cloudy 17 -8.3 10 -12.1 74 74 N 22 35 30.59 1036 10 16.0934 0 0
11:55 am 11:55 Mostly Cloudy 17 -8.1 10 -12.1 73 73 N 21 33 30.59 1036 10 16.0934 0 0
12:15 pm 12:15 Partly Cloudy 18 -8 10 -12.3 72 72 N 20 31 30.59 1036 10 16.0934 0 0
12:35 pm 12:35 Mostly Cloudy 18 -8 10 -12.3 72 72 N 17 28 30.59 1036 10 16.0934 0 0
12:55 pm 12:55 Partly Cloudy 18 -8 10 -12.4 71 71 NNE 15 24 30.59 1036 10 16.0934 0 0
1:15 pm 13:15 Partly Cloudy 18 -7.8 10 -12.5 69 69 N 13 20 30.59 1036 10 16.0934 0 0
1:35 pm 13:35 Partly Cloudy 18 -7.7 9 -12.7 68 68 N 16 26 30.56 1035 10 16.0934 0 0
1:55 pm 13:55 Sunny 18 -7.7 10 -12.5 69 69 N 15 24 30.56 1035 10 16.0934 0 0
2:15 pm 14:15 Sunny 18 -8 8 -13.3 66 66 N 15 24 30.56 1035 10 16.0934 0 0
2:35 pm 14:35 Sunny 17 -8.1 8 -13.6 65 65 N 14 22 30.56 1035 10 16.0934 0 0
2:55 pm 14:55 Sunny 18 -8 7 -13.9 63 63 N 14 22 30.59 1036 10 16.0934 0 0
3:15 pm 15:15 Sunny 18 -7.8 7 -13.7 63 63 N 10 17 30.59 1036 10 16.0934 0 0
3:35 pm 15:35 Sunny 17 -8.3 6 -14.5 61 61 N 17 28 30.59 1036 10 16.0934 0 0
3:55 pm 15:55 Sunny 17 -8.3 6 -14.5 61 61 N 10 17 30.59 1036 10 16.0934 0 0
4:15 pm 16:15 Sunny 17 -8.2 5 -15.1 58 58 N 13 20 30.59 1036 10 16.0934 0 0
4:35 pm 16:35 Sunny 16 -8.7 4 -15.8 57 57 N 13 20 30.62 1037 10 16.0934 0 0
4:55 pm 16:55 Sunny 15 -9.2 4 -15.5 61 61 N 9 15 30.62 1037 10 16.0934 0 0
5:15 pm 17:15 Sunny 15 -9.5 5 -15.1 64 64 N 6 9 30.62 1037 10 16.0934 0 0
5:35 pm 17:35 Sunny 15 -9.7 4 -15.6 62 62 N 3 6 30.62 1037 10 16.0934 0 0
5:55 pm 17:55 Sunny 13 -10.3 4 -15.5 66 66 N 3 6 30.65 1038 10 16.0934 0 0
6:15 pm 18:15 Clear 11 -11.5 4 -15.7 71 71 N 5 7 30.65 1038 10 16.0934 0 0
6:35 pm 18:35 Clear 12 -11.2 3 -16 68 68 N 3 6 30.65 1038 10 16.0934 0 0
6:55 pm 18:55 Clear 11 -11.5 3 -16.2 68 68 NNW 3 6 30.65 1038 10 16.0934 0 0
7:15 pm 19:15 Clear 11 -11.7 3 -16 71 71 NNW 5 7 30.68 1039 10 16.0934 0 0
7:35 pm 19:35 Clear 9 -12.7 2 -16.5 73 73 Calm 30.68 1039 10 16.0934 0 0
7:55 pm 19:55 Clear 10 -12.5 3 -16 75 75 Calm 30.68 1039 10 16.0934 0 0
8:15 pm 20:15 Clear 9 -12.7 3 -16.1 76 76 Calm 30.68 1039 10 16.0934 0 0
8:35 pm 20:35 Clear 10 -12.4 4 -15.6 77 77 Calm 30.68 1039 10 16.0934 0 0
8:55 pm 20:55 Clear 9 -12.6 4 -15.7 78 78 Calm 30.68 1039 10 16.0934 0 0
9:15 pm 21:15 Clear 9 -12.8 4 -15.4 81 81 Calm 30.68 1039 10 16.0934 0 0
9:35 pm 21:35 Clear 9 -13 4 -15.5 82 82 Calm 30.68 1039 10 16.0934 0 0
9:55 pm 21:55 Clear 8 -13.6 3 -16.2 81 81 Calm 30.65 1038 10 16.0934 0 0
10:15 pm 22:15 Clear 7 -14 2 -16.5 82 82 Calm 30.65 1038 10 16.0934 0 0
10:35 pm 22:35 Clear 8 -13.3 3 -16 80 80 SSW 3 6 30.65 1038 10 16.0934 0 0
10:55 pm 22:55 Clear 8 -13.1 3 -16 79 79 SSW 6 9 30.65 1038 10 16.0934 0 0
11:15 pm 23:15 Partly Cloudy 9 -12.7 3 -16.1 76 76 SSW 7 11 30.65 1038 10 16.0934 0 0
11:35 pm 23:35 Partly Cloudy 8 -13.1 2 -16.5 76 76 SSW 6 9 30.65 1038 10 16.0934 0 0
11:55 pm 23:55 Partly Cloudy 8 -13.1 2 -16.4 76 76 SSW 6 9 30.65 1038 10 16.0934 0 0

Powered by AerisWeather